GW6902 Weather Reports


time (UTC)temp
C
wind
direction
speed
KPH
gust
KPH
rain 1hr
cm
rain 24hr
cm
rain mn
cm
humidity
%
barometer
mb
20260505070248 10 216 0.0 0.0 0.00 0.00 0.00 90 1012.2
20260505065743 10 216 0.0 1.6 0.00 0.00 0.00 89 1012.2
20260505065240 10 216 0.0 0.0 0.00 0.00 0.00 89 1012.3
20260505064737 10 216 0.0 0.0 0.00 0.00 0.00 88 1012.3
20260505064235 10 216 0.0 0.0 0.00 0.00 0.00 88 1012.1
20260505063732 10 216 0.0 0.0 0.00 0.00 0.00 88 1011.8
20260505063228 10 216 0.0 3.2 0.00 0.00 0.00 88 1011.6
20260505062724 11 216 0.0 0.0 0.00 0.00 0.00 87 1011.9
20260505062222 11 216 0.0 0.0 0.00 0.00 0.00 86 1012.0
20260505061719 11 216 0.0 0.0 0.00 0.00 0.00 85 1012.0
20260505061217 11 216 0.0 0.0 0.00 0.00 0.00 85 1011.8
20260505060714 12 216 0.0 0.0 0.00 0.00 0.00 83 1011.7
20260505060211 12 216 0.0 0.0 0.00 0.00 0.00 84 1011.5
20260505055706 12 216 0.0 0.0 0.00 0.00 0.00 84 1011.4
20260505055203 12 216 0.0 0.0 0.00 0.00 0.00 85 1011.5
20260505054700 12 216 0.0 0.0 0.00 0.00 0.00 83 1011.6
20260505054158 12 216 0.0 0.0 0.00 0.00 0.00 82 1011.5
20260505053656 13 216 0.0 0.0 0.00 0.00 0.00 81 1011.5
20260505053152 13 216 0.0 0.0 0.00 0.00 0.00 80 1011.7
20260505052649 13 216 0.0 0.0 0.00 0.00 0.00 79 1011.4
20260505052146 13 216 0.0 1.6 0.00 0.00 0.00 78 1011.5
20260505051643 13 216 0.0 0.0 0.00 0.00 0.00 77 1011.4
20260505051142 14 216 0.0 0.0 0.00 0.00 0.00 76 1011.4
20260505050639 14 216 0.0 0.0 0.00 0.00 0.00 76 1011.3
20260505050137 15 217 0.0 0.0 0.00 0.00 0.00 75 1011.2
20260505041607 15 216 0.0 0.0 0.00 0.00 0.00 77 1011.2
20260505041104 15 216 0.0 0.0 0.00 0.00 0.00 76 1011.4
20260505040601 15 216 0.0 0.0 0.00 0.00 0.00 74 1011.2
20260505040058 16 216 1.6 1.6 0.00 0.00 0.00 72 1010.9
20260505035554 15 216 0.0 0.0 0.00 0.00 0.00 73 1011.2
20260505035051 15 216 0.0 0.0 0.00 0.00 0.00 72 1011.2
20260505034548 15 216 0.0 0.0 0.00 0.00 0.00 73 1011.1
20260505034044 15 216 0.0 1.6 0.00 0.00 0.00 72 1010.9
20260505033541 15 216 0.0 0.0 0.00 0.00 0.00 72 1011.0
20260505033040 15 216 0.0 0.0 0.00 0.00 0.00 71 1010.9
20260505032537 15 216 0.0 0.0 0.00 0.00 0.00 71 1011.0
20260505032033 15 216 0.0 0.0 0.00 0.00 0.00 70 1010.9
20260505031531 16 216 0.0 0.0 0.00 0.00 0.00 69 1011.1
20260505031027 16 216 0.0 0.0 0.00 0.00 0.00 68 1010.9
20260505030524 16 216 0.0 3.2 0.00 0.00 0.00 67 1011.1
20260505030020 16 217 0.0 1.6 0.00 0.00 0.00 65 1010.8
20260505025516 17 216 0.0 0.0 0.00 0.00 0.00 66 1010.8
20260505025015 17 216 0.0 0.0 0.00 0.00 0.00 65 1011.0
20260505024512 17 216 0.0 0.0 0.00 0.00 0.00 63 1010.7
20260505024009 18 216 0.0 1.6 0.00 0.00 0.00 61 1010.8
20260505023506 18 216 0.0 0.0 0.00 0.00 0.00 62 1010.6
20260505023004 18 216 0.0 0.0 0.00 0.00 0.00 62 1010.8
20260505022501 18 216 0.0 0.0 0.00 0.00 0.00 61 1010.9
20260505021958 19 216 0.0 1.6 0.00 0.00 0.00 59 1010.8
20260505021454 19 217 0.0 0.0 0.00 0.00 0.00 57 1010.8
20260505020950 20 217 0.0 0.0 0.00 0.00 0.00 56 1010.8
20260505020445 20 216 0.0 0.0 0.00 0.00 0.00 55 1010.8
20260505015943 20 217 0.0 0.0 0.00 0.00 0.00 55 1010.8
20260505015440 20 217 0.0 0.0 0.00 0.00 0.00 55 1011.0
20260505014937 20 217 0.0 1.6 0.00 0.00 0.00 53 1011.1
20260505014433 21 217 0.0 0.0 0.00 0.00 0.00 52 1011.1
20260505013931 21 217 0.0 0.0 0.00 0.00 0.00 50 1011.4
20260505013428 22 217 0.0 0.0 0.00 0.00 0.00 51 1011.0
20260505012925 22 217 0.0 0.0 0.00 0.00 0.00 49 1011.4
20260505012423 23 217 0.0 0.0 0.00 0.00 0.00 47 1011.2
20260505011919 23 217 0.0 1.6 0.00 0.00 0.00 46 1011.1
20260505011416 24 217 0.0 0.0 0.00 0.00 0.00 44 1011.1
20260505010913 23 217 0.0 0.0 0.00 0.00 0.00 45 1011.1
20260505010408 23 217 0.0 1.6 0.00 0.00 0.00 47 1011.3
20260505005904 23 217 1.6 1.6 0.00 0.00 0.00 46 1011.2
20260505005401 23 218 0.0 3.2 0.00 0.00 0.00 48 1011.1
20260505004859 23 156 0.0 1.6 0.00 0.00 0.00 48 1011.2
20260505004355 23 153 0.0 3.2 0.00 0.00 0.00 49 1011.1
20260505003852 23 231 1.6 1.6 0.00 0.00 0.00 46 1011.2
20260505003350 23 228 3.2 3.2 0.00 0.00 0.00 44 1011.3
20260505002845 24 180 3.2 4.8 0.00 0.00 0.00 46 1011.3
20260505002342 24 187 0.0 1.6 0.00 0.00 0.00 44 1011.2
20260505001841 24 233 0.0 1.6 0.00 0.00 0.00 47 1011.3
20260505001338 25 198 1.6 1.6 0.00 0.00 0.00 46 1011.1
20260505000835 25 218 1.6 1.6 0.00 0.00 0.00 44 1011.4
20260505000333 26 147 0.0 1.6 0.00 0.00 0.00 43 1011.3
20260504235829 26 130 0.0 1.6 0.00 0.00 0.00 41 1011.3
20260504235326 26 113 0.0 1.6 0.00 0.00 0.00 37 1011.2
20260504234823 26 111 0.0 1.6 0.00 0.00 0.00 38 1011.3
20260504234320 26 122 0.0 1.6 0.00 0.00 0.00 34 1011.4
20260504233817 26 115 1.6 1.6 0.00 0.00 0.00 35 1011.3
20260504233312 26 178 0.0 1.6 0.00 0.00 0.00 37 1011.4
20260504232809 26 177 0.0 1.6 0.00 0.00 0.00 35 1011.3
20260504232307 25 125 1.6 1.6 0.00 0.00 0.00 39 1011.4
20260504231803 25 135 3.2 3.2 0.00 0.00 0.00 39 1011.4
20260504231300 25 202 0.0 4.8 0.00 0.00 0.00 38 1011.4
20260504230756 25 179 1.6 3.2 0.00 0.00 0.00 38 1011.2
20260504230254 25 117 3.2 4.8 0.00 0.00 0.00 39 1011.5
20260504225753 25 242 1.6 4.8 0.00 0.00 0.00 38 1011.5
20260504225248 24 183 1.6 3.2 0.00 0.00 0.00 41 1011.6
20260504224746 25 234 1.6 4.8 0.00 0.00 0.00 38 1011.9
20260504224243 26 78 1.6 3.2 0.00 0.00 0.00 43 1011.9
20260504223739 26 176 1.6 3.2 0.00 0.00 0.00 38 1011.6
20260504223235 26 142 0.0 1.6 0.00 0.00 0.00 38 1011.9
20260504222732 26 145 0.0 1.6 0.00 0.00 0.00 38 1011.8
20260504222229 26 73 1.6 1.6 0.00 0.00 0.00 37 1011.9
20260504221726 26 138 1.6 1.6 0.00 0.00 0.00 36 1011.8
20260504221223 26 231 1.6 3.2 0.00 0.00 0.00 37 1011.9
20260504220720 26 230 1.6 1.6 0.00 0.00 0.00 37 1011.8
20260504220217 26 229 0.0 1.6 0.00 0.00 0.00 34 1011.8
20260504215714 26 81 0.0 1.6 0.00 0.00 0.00 35 1012.0
20260504215211 26 77 1.6 3.2 0.00 0.00 0.00 41 1011.9
20260504214706 26 40 1.6 4.8 0.00 0.00 0.00 35 1012.0
20260504214203 26 40 1.6 1.6 0.00 0.00 0.00 35 1012.1
20260504213700 26 45 1.6 1.6 0.00 0.00 0.00 36 1011.9
20260504213157 25 141 0.0 3.2 0.00 0.00 0.00 37 1012.0
20260504212653 26 108 1.6 3.2 0.00 0.00 0.00 35 1012.2
20260504212150 26 137 0.0 3.2 0.00 0.00 0.00 35 1012.2
20260504211647 26 69 0.0 3.2 0.00 0.00 0.00 33 1012.4
20260504211143 26 94 0.0 1.6 0.00 0.00 0.00 34 1012.2
20260504210642 26 130 0.0 1.6 0.00 0.00 0.00 36 1012.0
20260504210138 26 232 3.2 3.2 0.00 0.00 0.00 38 1012.3
20260504205635 27 97 1.6 3.2 0.00 0.00 0.00 33 1012.2
20260504205132 27 286 1.6 1.6 0.00 0.00 0.00 34 1012.2
20260504204631 27 274 0.0 1.6 0.00 0.00 0.00 37 1012.1
20260504204130 26 67 1.6 1.6 0.00 0.00 0.00 34 1011.8
20260504203628 26 49 1.6 3.2 0.00 0.00 0.00 35 1012.0
20260504203125 26 50 3.2 3.2 0.00 0.00 0.00 34 1012.1
20260504202625 27 89 1.6 3.2 0.00 0.00 0.00 33 1011.9
20260504202123 27 73 1.6 1.6 0.00 0.00 0.00 31 1012.0
20260504201619 26 88 1.6 3.2 0.00 0.00 0.00 34 1012.0
20260504201117 26 63 3.2 4.8 0.00 0.00 0.00 31 1012.1
20260504200614 26 74 1.6 1.6 0.00 0.00 0.00 33 1012.3
20260504200110 26 234 0.0 4.8 0.00 0.00 0.00 36 1012.1
20260504195607 26 16 1.6 3.2 0.00 0.00 0.00 31 1012.2
20260504195103 26 145 1.6 1.6 0.00 0.00 0.00 33 1012.1
20260504194600 26 149 0.0 4.8 0.00 0.00 0.00 33 1012.3
20260504194055 27 114 1.6 1.6 0.00 0.00 0.00 32 1012.1
20260504193552 27 71 0.0 1.6 0.00 0.00 0.00 35 1012.2
20260504193051 27 41 1.6 1.6 0.00 0.00 0.00 32 1012.4
20260504192548 27 86 0.0 1.6 0.00 0.00 0.00 34 1012.2
20260504192046 27 89 1.6 3.2 0.00 0.00 0.00 33 1012.2
20260504191544 27 68 0.0 4.8 0.00 0.00 0.00 32 1012.0
20260504191040 27 92 1.6 1.6 0.00 0.00 0.00 32 1012.1
20260504190537 26 52 0.0 3.2 0.00 0.00 0.00 33 1012.3
20260504190032 25 27 0.0 3.2 0.00 0.00 0.00 37 1011.9
20260504185530 26 189 3.2 3.2 0.00 0.00 0.00 33 1012.1
20260504185026 26 255 1.6 1.6 0.00 0.00 0.00 33 1012.0
20260504184521 26 131 1.6 3.2 0.00 0.00 0.00 33 1012.0
20260504184017 26 169 0.0 1.6 0.00 0.00 0.00 35 1012.3
20260504183515 26 180 1.6 1.6 0.00 0.00 0.00 32 1012.2
20260504183013 25 173 1.6 3.2 0.00 0.00 0.00 34 1012.3
20260504182509 26 117 1.6 1.6 0.00 0.00 0.00 34 1012.4
20260504182007 25 178 1.6 1.6 0.00 0.00 0.00 34 1012.5
20260504181503 25 197 1.6 3.2 0.00 0.00 0.00 37 1012.5
20260504181002 24 211 1.6 3.2 0.00 0.00 0.00 37 1012.4
20260504180501 25 237 3.2 9.7 0.00 0.00 0.00 36 1012.3
20260504175958 25 188 1.6 3.2 0.00 0.00 0.00 36 1012.5
20260504175455 24 213 1.6 4.8 0.00 0.00 0.00 36 1012.3
20260504174953 23 218 1.6 1.6 0.00 0.00 0.00 36 1012.5
20260504174450 23 232 3.2 3.2 0.00 0.00 0.00 37 1012.4
20260504173947 24 181 4.8 4.8 0.00 0.00 0.00 37 1012.2
20260504173443 23 124 1.6 1.6 0.00 0.00 0.00 36 1012.6
20260504172941 24 37 1.6 3.2 0.00 0.00 0.00 34 1012.5
20260504172437 24 130 0.0 1.6 0.00 0.00 0.00 36 1012.6
20260504171934 24 148 0.0 1.6 0.00 0.00 0.00 37 1012.3
20260504171431 23 141 0.0 0.0 0.00 0.00 0.00 38 1012.5
20260504170928 23 137 3.2 3.2 0.00 0.00 0.00 37 1012.6
20260504170424 23 127 0.0 1.6 0.00 0.00 0.00 38 1012.5
20260504160343 22 221 0.0 0.0 0.00 0.00 0.00 39 1012.3
20260504150808 18 220 0.0 0.0 0.00 0.00 0.00 52 1012.0
20260504150304 18 221 0.0 0.0 0.00 0.00 0.00 50 1012.0
20260504141235 14 220 0.0 0.0 0.00 0.00 0.00 50 1011.7
20260504140731 13 220 0.0 0.0 0.00 0.00 0.00 52 1011.7
20260504140226 13 220 0.0 0.0 0.00 0.00 0.00 50 1011.8
20260504130655 13 220 0.0 0.0 0.00 0.00 0.00 46 1011.3
20260504130151 13 220 0.0 1.6 0.00 0.00 0.00 43 1011.4
20260504120115 16 190 1.6 3.2 0.00 0.00 0.00 35 1011.2
20260504110543 17 207 1.6 3.2 0.00 0.00 0.00 34 1011.0
20260504100505 17 205 3.2 4.8 0.00 0.00 0.00 34 1011.2
20260504081857 17 195 1.6 3.2 0.00 0.00 0.00 36 1011.3
20260504081354 17 195 0.0 1.6 0.00 0.00 0.00 36 1011.0
20260504080850 17 190 0.0 1.6 0.00 0.00 0.00 35 1011.2
20260504080348 17 173 1.6 4.8 0.00 0.00 0.00 35 1011.2